User: anonymous   Login
Location: Radomski Observatory
(40.2854°N, 79.5145°W)
Time: 05:15:49
(UTC-05:00)
Language:

Cosmos 1072 Rocket - Orbit

View from above orbital plane
View from above orbital plane
View from above satellite
View from above satellite

Ground track
Ground track

The orbit data is extracted from the following two-line orbital elements,

1 11239U 79003B   16338.32789625  .00000046  00000-0  31674-4 0  9993
2 11239  82.9400 233.9329 0039729 218.8410 272.3035 13.75797273900929
Epoch (UTC): 03 December 2016 07:52:10
Eccentricity: 0.0039729
inclination: 82.9400°
perigee height: 949 km
apogee height: 1008 km
right ascension of ascending node: 233.9329°
argument of perigee: 218.8410°
revolutions per day: 13.75797273
mean anomaly at epoch: 272.3035°
orbit number at epoch: 90092

The dashed part of the orbit path shows where the satellite is in the earth's shadow,  

DLR